User: anonymous   Login
Location: Alberta Star Party
(51.6612°N, 112.9089°W)
Time: 15:50:49
(UTC-06:00)
Language:

AO-Echo - Orbit

View from above orbital plane
View from above orbital plane
View from above satellite
View from above satellite

Ground track
Ground track

The orbit data is extracted from the following two-line orbital elements,

1 28375U 04025K   16208.19737986  .00000022  00000-0  19737-4 0  9998
2 28375  98.3290 142.9661 0082401 186.0166 174.0041 14.41788930634847
Epoch (UTC): 26 July 2016 04:44:13
Eccentricity: 0.0082401
inclination: 98.3290°
perigee height: 694 km
apogee height: 811 km
right ascension of ascending node: 142.9661°
argument of perigee: 186.0166°
revolutions per day: 14.41788930
mean anomaly at epoch: 174.0041°
orbit number at epoch: 63484

The dashed part of the orbit path shows where the satellite is in the earth's shadow,  

DLR